Location: Battersea Observatory
(44.4318°N, 76.3841°W)
Time: 21:58:46
(UTC-04:00)

Tiros 1 despin weight - Pass Details

Date: 30 January 2022
Orbit: 592 x 639 km, 48.2° (Epoch: 25 May)

Event Time Altitude Azimuth Distance (km) Brightness Sun altitude
Rises 15:46:41 0° 248° (WSW) 2,850 ? 12.1°
Reaches altitude 10° 15:48:57 10° 249° (WSW) 1,956 ? 11.8°
Maximum altitude 15:53:27 86° 334° (NNW) 622 ? 11.2°
Drops below altitude 10° 15:58:03 10° 68° (ENE) 1,995 ? 10.5°
Sets 16:00:24 0° 69° (ENE) 2,911 ? 10.2°
